Other Surface Observations
Issued by NWS Charleston, SC

Home | Current Version | Previous Version | Text Only | Print | Product List | Glossary On
Versions: 1 2 3 4 5 6 7 8 9 10 11 12 13 14 15 16 17 18 19 20 21 22 23 24 25 26 27 28 29 30 31 32 33 34 35 36 37 38 39 40 41 42 43 44 45 46 47 48 49 50
000
SXUS52 KCHS 300112
OSOCHS

MARINE OBSERVATIONS
NATIONAL WEATHER SERVICE CHARLESTON SC
900 PM EDT WED MAR 29 2017

...DOWNTOWN CHARLESTON AND HARBOR...

CITY           SKY/WX    TMP DP  RH WIND       PRES   REMARKS
WATERFRONT PRK   N/A     66  65  96 E12       30.03R

...LAKE MOULTRIE...

CITY           SKY/WX    TMP DP  RH WIND       PRES   REMARKS
PINOPOLIS        N/A    N/A N/A N/A SE5       29.95R

...LAKE AND SUPPLEMENTAL COASTAL OBSERVATIONS...

STATION/POSITION TIME  TEMP    WIND        PRES    WAVE   SWELL
                       AIR SEA DIR/SP/G            HT/PER HT/PER/DIR
                 (UTC) (F)     (DEG/KT/KT) (MB)    (FT/S) (FT/S/D)
FORT PULASKI     0042   66 67  140/  3/  4 1016.6R
SAPELO ISLAND    0000   68     120/  2     1016.0
WINYAH BAY       NOT AVBL
LAKE MURRAY      0020   72        CALM     1015.2
ACE BASIN NERRS  NOT AVBL


...C-MAN AND BUOY OBSERVATIONS...

STATION/POSITION TIME  TEMP    WIND        PRES    WAVE   SWELL
                       AIR SEA DIR/SP/G            HT/PER HT/PER/DIR
                 (UTC) (F)     (DEG/KT/KT) (MB)    (FT/S) (FT/S/D)
BUOY 41004       0050   71 68   80/ 10/ 12 1016.8R   4/10   3/100/10
BUOY 41008       0050   66 66  120/  8/ 10 1015.8F   3/10   3/140/10
FOLLY BEACH CMAN 0100   64      60/ 10/ 11 1017.9R
CAPERS NS BUOY   NOT AVBL
FRIPP NS BUOY    0008   64 63   90/  6/  6 1016.0R
5E ST. MARYS GA  0030      69                N/A     3/10   2/110/11


STATION/POSITION TIME  TEMP    WIND        PRES    WAVE   SWELL
                       AIR SEA DIR/SP/G            HT/PER HT/PER/DIR
                 (UTC) (F)     (DEG/KT/KT) (MB)    (FT/S) (FT/S/D)
FRYING PAN BUOY  0100   68 74   60/ 17/ 21 1018.3
BUOY 41025       0050   59 74   30/ 21/ 27 1019.6R   7/ 8   3/ 10/15
CAPE LOOKOUT NC  0100   60      50/ 18/ 20 1020.0R
BUOY 41002       0050   70 72   50/ 17/ 19 1016.6R   5/10   5/110/10
BUOY 41010       NOT AVBL
ST AUGUSTINE FL  0100   71 71  170/  9/ 10 1017.0R

$$




USA.gov is the U.S. government's official web portal to all federal, state and local government web resources and services.